Weather History for Middletown, PA

Change the Weather History Date:

Saturday, November 8, 2014

  Actual Average Record
Temperature  
Mean Temperature 40 °F 47 °F  
Max Temperature 49 °F 56 °F 76 °F (1975)
Min Temperature 30 °F 38 °F 22 °F (1960)
Degree Days  
Heating Degree Days 25 18  
Month to date heating degree days 143 135  
Since 1 July heating degree days 422 547  
Cooling Degree Days 0 0  
Month to date cooling degree days 0 0  
Year to date cooling degree days 1050 1002  
Moisture  
Dew Point 27 °F    
Average Humidity 62    
Maximum Humidity 85    
Minimum Humidity 39    
Precipitation  
Precipitation 0.00 in 0.11 in 2.92 in (1943)
Month to date precipitation 0.83 0.82  
Year to date precipitation 38.47 35.10  
Snow  
Snow 0.00 in - - ()
Month to date snowfall 0.0  
Since 1 July snowfall 0.0  
Since 1 September snowfall 0.0  
Snow Depth 0.00 in    
Sea Level Pressure  
Sea Level Pressure 29.98 in    
Wind  
Wind Speed 5 mph (South)    
Max Wind Speed 15 mph    
Max Gust Speed 24 mph    
Visibility 10 miles    
Events      
T = Trace of Precipitation, MM = Missing Value Source: NWS Daily Summary

Daily Weather History Graph

Daily Weather History Graph

Search for Another Location

Airport:

Trip Planner

Search our weather history database for the weather conditions in past years. The results will help you decide how hot, cold, wet, or windy it might be!

Date:

Astronomy

Nov. 08, 2014 Rise Set
Actual Time 6:44 AM EST 4:56 PM EST
Civil Twilight 6:15 AM EST 5:25 PM EST
Nautical Twilight 5:43 AM EST 5:57 PM EST
Astronomical Twilight 5:11 AM EST 6:29 PM EST
Moon 6:35 PM EST (11/8) 8:18 AM EST (11/8)
Length of Visible Light 11h 09m
Length of Day
10h 12m
Waning Gibbous, 96% of the Moon is Illuminated
Nov 8
Waning Gibbous
Nov 14
Last Quarter
Nov 22
New
Nov 29
First Quarter
Dec 6
Full

Hourly Weather History & Observations

Time (EST) Temp. Windchill Dew Point Humidity Pressure Visibility Wind Dir Wind Speed Gust Speed Precip Events Conditions
12:56 AM 35.1 °F 30.1 °F 26.1 °F 70% 30.03 in 10.0 mi NW 5.8 mph - N/A   Clear
1:56 AM 34.0 °F 28.8 °F 26.1 °F 73% 30.04 in 10.0 mi NNW 5.8 mph - N/A   Clear
2:56 AM 33.1 °F 28.7 °F 26.1 °F 75% 30.05 in 10.0 mi WNW 4.6 mph - N/A   Clear
3:56 AM 30.9 °F - 26.1 °F 82% 30.04 in 10.0 mi Calm Calm - N/A   Partly Cloudy
4:56 AM 30.9 °F - 26.1 °F 82% 30.05 in 10.0 mi Calm Calm - N/A   Partly Cloudy
5:56 AM 32.0 °F 28.7 °F 27.0 °F 82% 30.06 in 10.0 mi East 3.5 mph - N/A   Partly Cloudy
6:56 AM 30.9 °F 27.5 °F 27.0 °F 85% 30.04 in 10.0 mi East 3.5 mph - N/A   Mostly Cloudy
7:56 AM 35.1 °F 30.1 °F 30.0 °F 82% 30.05 in 10.0 mi SE 5.8 mph - N/A   Scattered Clouds
8:56 AM 39.0 °F 36.8 °F 28.9 °F 67% 30.05 in 10.0 mi SSE 3.5 mph - N/A   Scattered Clouds
9:56 AM 44.1 °F 41.5 °F 27.0 °F 51% 30.03 in 10.0 mi SSW 4.6 mph - N/A   Partly Cloudy
10:56 AM 46.0 °F 41.9 °F 27.0 °F 47% 30.02 in 10.0 mi South 8.1 mph - N/A   Scattered Clouds
11:56 AM 46.9 °F - 26.1 °F 44% 29.99 in 10.0 mi WSW 9.2 mph 20.7 mph N/A   Mostly Cloudy
12:56 PM 48.0 °F - 27.0 °F 44% 29.95 in 10.0 mi SW 13.8 mph 19.6 mph N/A   Mostly Cloudy
1:56 PM 48.0 °F - 27.0 °F 44% 29.92 in 10.0 mi Variable 6.9 mph 17.3 mph N/A   Mostly Cloudy
2:56 PM 48.0 °F - 25.0 °F 41% 29.91 in 10.0 mi Variable 4.6 mph - N/A   Overcast
3:56 PM 48.0 °F - 26.1 °F 42% 29.91 in 10.0 mi SW 11.5 mph - N/A   Overcast
4:56 PM 46.9 °F - 27.0 °F 46% 29.91 in 10.0 mi Variable 4.6 mph - N/A   Mostly Cloudy
5:56 PM 45.0 °F - 26.1 °F 48% 29.90 in 10.0 mi Calm Calm - N/A   Overcast
6:56 PM 46.0 °F 41.9 °F 28.0 °F 50% 29.92 in 10.0 mi South 8.1 mph - N/A   Overcast
7:56 PM 45.0 °F 41.2 °F 28.0 °F 52% 29.91 in 10.0 mi SSE 6.9 mph - N/A   Overcast
8:56 PM 44.1 °F 41.5 °F 28.0 °F 53% 29.91 in 10.0 mi SSE 4.6 mph - N/A   Overcast
9:56 PM 44.1 °F 40.8 °F 28.9 °F 55% 29.91 in 10.0 mi SSE 5.8 mph - N/A   Overcast
10:56 PM 43.0 °F 41.3 °F 30.0 °F 60% 29.91 in 10.0 mi ENE 3.5 mph - N/A   Mostly Cloudy
11:56 PM 43.0 °F 41.3 °F 30.0 °F 60% 29.90 in 10.0 mi ESE 3.5 mph - N/A   Partly Cloudy